Time,TemperatureF,DewpointF,PressureIn,WindDirection,WindDirectionDegrees,WindSpeedMPH,WindSpeedGustMPH,Humidity,HourlyPrecipIn,Conditions,Clouds,dailyrainin,SoftwareType,DateUTC
2013-01-29 00:01:00,48.6,46.2,29.84,North,0,0.0,0.0,91,0.00,,,0.00,WUHU216HW,2013-01-29 05:01:00,
2013-01-29 00:03:00,48.6,46.2,29.84,North,0,0.0,0.0,91,0.00,,,0.00,WUHU216HW,2013-01-29 05:03:00,
2013-01-29 00:08:00,48.6,46.2,29.84,North,0,0.0,0.0,91,0.00,,,0.00,WUHU216HW,2013-01-29 05:08:00,
2013-01-29 00:13:00,48.6,46.2,29.84,North,0,0.0,0.0,91,0.00,,,0.00,WUHU216HW,2013-01-29 05:13:00,
2013-01-29 00:18:00,48.6,46.2,29.84,North,0,0.0,0.0,91,0.00,,,0.00,WUHU216HW,2013-01-29 05:18:00,
2013-01-29 00:24:00,48.6,46.2,29.84,North,0,0.0,0.0,91,0.00,,,0.00,WUHU216HW,2013-01-29 05:24:00,
2013-01-29 00:29:00,48.6,46.2,29.83,North,0,0.0,0.0,91,0.00,,,0.00,WUHU216HW,2013-01-29 05:29:00,
2013-01-29 00:34:00,48.6,46.2,29.83,North,0,0.0,0.0,91,0.00,,,0.00,WUHU216HW,2013-01-29 05:34:00,
2013-01-29 00:39:00,48.8,46.3,29.82,North,0,0.0,0.0,91,0.00,,,0.00,WUHU216HW,2013-01-29 05:39:00,
2013-01-29 00:44:00,48.8,46.3,29.83,North,0,0.0,0.0,91,0.00,,,0.00,WUHU216HW,2013-01-29 05:44:00,
2013-01-29 00:49:00,49.0,46.4,29.83,North,0,0.0,0.0,91,0.00,,,0.00,WUHU216HW,2013-01-29 05:49:00,
2013-01-29 00:54:00,49.0,46.4,29.83,North,0,0.0,0.0,91,0.00,,,0.00,WUHU216HW,2013-01-29 05:54:00,
2013-01-29 00:59:00,49.0,46.4,29.82,North,0,0.0,0.0,91,0.00,,,0.00,WUHU216HW,2013-01-29 05:59:00,
2013-01-29 01:04:00,49.1,46.6,29.82,North,0,0.0,0.0,91,0.00,,,0.00,WUHU216HW,2013-01-29 06:04:00,
2013-01-29 01:10:00,49.1,46.6,29.82,North,0,0.0,0.0,91,0.00,,,0.00,WUHU216HW,2013-01-29 06:10:00,
2013-01-29 01:15:00,49.1,46.6,29.82,North,0,0.0,0.0,91,0.00,,,0.00,WUHU216HW,2013-01-29 06:15:00,
2013-01-29 01:20:00,49.3,46.8,29.81,North,0,0.0,0.0,91,0.00,,,0.00,WUHU216HW,2013-01-29 06:20:00,
2013-01-29 01:25:00,49.3,46.8,29.81,North,0,0.0,0.0,91,0.00,,,0.00,WUHU216HW,2013-01-29 06:25:00,
2013-01-29 01:30:00,49.3,46.8,29.81,North,0,0.0,0.0,91,0.00,,,0.00,WUHU216HW,2013-01-29 06:30:00,
2013-01-29 01:35:00,49.5,47.0,29.81,North,0,0.0,0.0,91,0.00,,,0.00,WUHU216HW,2013-01-29 06:35:00,
2013-01-29 01:40:00,49.5,47.0,29.81,North,0,0.0,0.0,91,0.00,,,0.00,WUHU216HW,2013-01-29 06:40:00,
2013-01-29 01:45:00,49.5,47.0,29.80,North,0,0.0,0.0,91,0.00,,,0.00,WUHU216HW,2013-01-29 06:45:00,
2013-01-29 01:50:00,49.5,47.0,29.80,North,0,0.0,0.0,91,0.00,,,0.00,WUHU216HW,2013-01-29 06:50:00,
2013-01-29 01:55:00,49.7,47.2,29.80,North,0,0.0,0.0,91,0.00,,,0.00,WUHU216HW,2013-01-29 06:55:00,
2013-01-29 02:01:00,49.7,47.2,29.80,North,0,0.0,0.0,91,0.00,,,0.00,WUHU216HW,2013-01-29 07:01:00,
2013-01-29 02:06:00,49.7,47.2,29.80,North,0,0.0,0.0,91,0.00,,,0.00,WUHU216HW,2013-01-29 07:06:00,
2013-01-29 02:11:00,49.7,47.2,29.80,North,0,0.0,0.0,91,0.00,,,0.00,WUHU216HW,2013-01-29 07:11:00,
2013-01-29 02:16:00,49.7,47.2,29.80,North,0,0.0,0.0,91,0.00,,,0.00,WUHU216HW,2013-01-29 07:16:00,
2013-01-29 02:21:00,49.7,47.2,29.80,North,0,0.0,0.0,91,0.00,,,0.00,WUHU216HW,2013-01-29 07:21:00,
2013-01-29 02:26:00,49.7,47.2,29.80,North,0,0.0,0.0,91,0.00,,,0.00,WUHU216HW,2013-01-29 07:26:00,
2013-01-29 02:31:00,49.7,47.2,29.80,North,0,0.0,0.0,91,0.00,,,0.00,WUHU216HW,2013-01-29 07:31:00,
2013-01-29 02:36:00,49.7,47.2,29.80,North,0,0.0,0.0,91,0.00,,,0.00,WUHU216HW,2013-01-29 07:36:00,
2013-01-29 02:41:00,49.7,47.2,29.80,North,0,0.0,0.0,91,0.00,,,0.00,WUHU216HW,2013-01-29 07:41:00,
2013-01-29 02:46:00,49.7,47.2,29.80,North,0,0.0,0.0,91,0.00,,,0.00,WUHU216HW,2013-01-29 07:46:00,
2013-01-29 02:52:00,49.7,47.4,29.80,North,0,0.0,0.0,92,0.00,,,0.00,WUHU216HW,2013-01-29 07:52:00,
2013-01-29 02:57:00,49.7,47.2,29.79,North,0,0.0,0.0,91,0.00,,,0.00,WUHU216HW,2013-01-29 07:57:00,
2013-01-29 03:02:00,49.7,47.2,29.80,North,0,0.0,0.0,91,0.00,,,0.00,WUHU216HW,2013-01-29 08:02:00,
2013-01-29 03:07:00,49.7,47.4,29.79,North,0,0.0,0.0,92,0.00,,,0.00,WUHU216HW,2013-01-29 08:07:00,
2013-01-29 03:12:00,49.7,47.2,29.79,North,0,0.0,0.0,91,0.00,,,0.00,WUHU216HW,2013-01-29 08:12:00,
2013-01-29 03:17:00,49.7,47.4,29.79,North,0,0.0,0.0,92,0.00,,,0.00,WUHU216HW,2013-01-29 08:17:00,
2013-01-29 03:22:00,49.7,47.4,29.79,North,0,0.0,0.0,92,0.00,,,0.00,WUHU216HW,2013-01-29 08:22:00,
2013-01-29 03:27:00,49.9,47.6,29.79,North,0,0.0,0.0,92,0.00,,,0.00,WUHU216HW,2013-01-29 08:27:00,
2013-01-29 03:32:00,49.7,47.4,29.79,North,0,0.0,0.0,92,0.00,,,0.00,WUHU216HW,2013-01-29 08:32:00,
2013-01-29 03:37:00,49.7,47.4,29.79,North,0,0.0,0.0,92,0.00,,,0.00,WUHU216HW,2013-01-29 08:37:00,
2013-01-29 03:42:00,49.7,47.4,29.79,North,0,0.0,0.0,92,0.00,,,0.00,WUHU216HW,2013-01-29 08:42:00,
2013-01-29 03:47:00,49.7,47.4,29.79,North,0,0.0,0.0,92,0.00,,,0.00,WUHU216HW,2013-01-29 08:47:00,
2013-01-29 03:52:00,49.7,47.4,29.78,North,0,0.0,0.0,92,0.00,,,0.00,WUHU216HW,2013-01-29 08:52:00,
2013-01-29 03:58:00,49.7,47.4,29.78,North,0,0.0,0.0,92,0.00,,,0.00,WUHU216HW,2013-01-29 08:58:00,
2013-01-29 04:03:00,49.7,47.4,29.78,North,0,0.0,0.0,92,0.00,,,0.00,WUHU216HW,2013-01-29 09:03:00,
2013-01-29 04:08:00,49.7,47.4,29.78,North,0,0.0,0.0,92,0.00,,,0.00,WUHU216HW,2013-01-29 09:08:00,
2013-01-29 04:13:00,49.5,47.3,29.78,North,0,0.0,0.0,92,0.00,,,0.00,WUHU216HW,2013-01-29 09:13:00,
2013-01-29 04:18:00,49.5,47.3,29.78,North,0,0.0,0.0,92,0.00,,,0.00,WUHU216HW,2013-01-29 09:18:00,
2013-01-29 04:23:00,49.5,47.3,29.78,North,0,0.0,0.0,92,0.00,,,0.00,WUHU216HW,2013-01-29 09:23:00,
2013-01-29 04:28:00,49.5,47.3,29.78,North,0,0.0,0.0,92,0.00,,,0.00,WUHU216HW,2013-01-29 09:28:00,
2013-01-29 04:33:00,49.5,47.3,29.77,North,0,0.0,0.0,92,0.00,,,0.00,WUHU216HW,2013-01-29 09:33:00,
2013-01-29 04:38:00,49.5,47.3,29.77,North,0,0.0,0.0,92,0.00,,,0.00,WUHU216HW,2013-01-29 09:38:00,
2013-01-29 04:44:00,49.3,47.1,29.77,North,0,0.0,0.0,92,0.00,,,0.00,WUHU216HW,2013-01-29 09:44:00,
2013-01-29 04:49:00,49.3,47.1,29.77,North,0,0.0,0.0,92,0.00,,,0.00,WUHU216HW,2013-01-29 09:49:00,
2013-01-29 04:54:00,49.3,47.1,29.77,North,0,0.0,0.0,92,0.00,,,0.00,WUHU216HW,2013-01-29 09:54:00,
2013-01-29 04:59:00,49.3,47.1,29.76,North,0,0.0,0.0,92,0.00,,,0.00,WUHU216HW,2013-01-29 09:59:00,
2013-01-29 05:04:00,49.1,46.9,29.76,North,0,0.0,0.0,92,0.00,,,0.00,WUHU216HW,2013-01-29 10:04:00,
2013-01-29 05:09:00,49.1,46.9,29.77,North,0,0.0,0.0,92,0.00,,,0.00,WUHU216HW,2013-01-29 10:09:00,
2013-01-29 05:14:00,49.1,46.9,29.77,North,0,0.0,0.0,92,0.00,,,0.00,WUHU216HW,2013-01-29 10:14:00,
2013-01-29 05:19:00,49.3,47.1,29.77,North,0,0.0,0.0,92,0.00,,,0.00,WUHU216HW,2013-01-29 10:19:00,
2013-01-29 05:25:00,49.3,47.1,29.77,North,0,0.0,0.0,92,0.00,,,0.00,WUHU216HW,2013-01-29 10:25:00,
2013-01-29 05:30:00,49.3,47.1,29.76,North,0,0.0,0.0,92,0.00,,,0.00,WUHU216HW,2013-01-29 10:30:00,
2013-01-29 05:35:00,49.5,47.3,29.77,North,0,0.0,0.0,92,0.00,,,0.00,WUHU216HW,2013-01-29 10:35:00,
2013-01-29 05:40:00,49.7,47.4,29.76,North,0,0.0,0.0,92,0.00,,,0.00,WUHU216HW,2013-01-29 10:40:00,
2013-01-29 05:45:00,49.7,47.4,29.76,North,0,0.0,0.0,92,0.00,,,0.00,WUHU216HW,2013-01-29 10:45:00,
2013-01-29 05:50:00,49.9,47.6,29.76,North,0,0.0,0.0,92,0.00,,,0.00,WUHU216HW,2013-01-29 10:50:00,
2013-01-29 05:55:00,50.0,47.7,29.76,North,0,0.0,0.0,92,0.00,,,0.00,WUHU216HW,2013-01-29 10:55:00,
2013-01-29 06:00:00,50.2,47.9,29.76,North,0,0.0,0.0,92,0.00,,,0.00,WUHU216HW,2013-01-29 11:00:00,
2013-01-29 06:06:00,50.2,47.9,29.75,North,0,0.0,0.0,92,0.00,,,0.00,WUHU216HW,2013-01-29 11:06:00,
2013-01-29 06:11:00,50.4,48.1,29.75,North,0,0.0,0.0,92,0.00,,,0.00,WUHU216HW,2013-01-29 11:11:00,
2013-01-29 06:16:00,50.6,48.2,29.75,North,0,0.0,0.0,92,0.00,,,0.00,WUHU216HW,2013-01-29 11:16:00,
2013-01-29 06:21:00,50.8,48.4,29.75,North,0,0.0,0.0,92,0.00,,,0.00,WUHU216HW,2013-01-29 11:21:00,
2013-01-29 06:26:00,50.9,48.6,29.75,North,0,0.0,0.0,92,0.00,,,0.00,WUHU216HW,2013-01-29 11:26:00,
2013-01-29 06:31:00,51.1,48.8,29.75,North,0,0.0,0.0,92,0.00,,,0.00,WUHU216HW,2013-01-29 11:31:00,
2013-01-29 06:36:00,51.1,48.8,29.75,North,0,0.0,0.0,92,0.00,,,0.00,WUHU216HW,2013-01-29 11:36:00,
2013-01-29 06:41:00,51.3,49.0,29.74,North,0,0.0,0.0,92,0.00,,,0.00,WUHU216HW,2013-01-29 11:41:00,
2013-01-29 06:46:00,51.3,49.0,29.75,North,0,0.0,0.0,92,0.00,,,0.00,WUHU216HW,2013-01-29 11:46:00,
2013-01-29 06:51:00,51.5,49.1,29.75,North,0,0.0,0.0,92,0.00,,,0.00,WUHU216HW,2013-01-29 11:51:00,
2013-01-29 06:56:00,51.5,48.9,29.75,North,0,0.0,0.0,91,0.00,,,0.00,WUHU216HW,2013-01-29 11:56:00,
2013-01-29 07:01:00,51.5,48.9,29.74,North,0,0.0,0.0,91,0.00,,,0.00,WUHU216HW,2013-01-29 12:01:00,
2013-01-29 07:06:00,51.7,49.1,29.75,North,0,0.0,0.0,91,0.00,,,0.00,WUHU216HW,2013-01-29 12:06:00,
2013-01-29 07:11:00,51.8,49.2,29.75,North,0,0.0,0.0,91,0.00,,,0.00,WUHU216HW,2013-01-29 12:11:00,
2013-01-29 07:16:00,51.8,49.5,29.75,North,0,0.0,0.0,92,0.00,,,0.00,WUHU216HW,2013-01-29 12:16:00,
2013-01-29 07:21:00,52.0,49.7,29.75,North,0,0.0,0.0,92,0.00,,,0.00,WUHU216HW,2013-01-29 12:21:00,
2013-01-29 07:27:00,52.0,49.7,29.74,North,0,0.0,0.0,92,0.00,,,0.00,WUHU216HW,2013-01-29 12:27:00,
2013-01-29 07:32:00,52.0,49.7,29.74,North,0,0.0,0.0,92,0.00,,,0.00,WUHU216HW,2013-01-29 12:32:00,
2013-01-29 07:37:00,52.2,49.9,29.74,North,0,0.0,0.0,92,0.00,,,0.00,WUHU216HW,2013-01-29 12:37:00,
2013-01-29 07:42:00,52.0,49.7,29.74,North,0,0.0,0.0,92,0.00,,,0.00,WUHU216HW,2013-01-29 12:42:00,
2013-01-29 07:47:00,52.0,49.7,29.74,North,0,0.0,0.0,92,0.00,,,0.00,WUHU216HW,2013-01-29 12:47:00,
2013-01-29 07:52:00,52.0,49.7,29.74,North,0,0.0,0.0,92,0.00,,,0.00,WUHU216HW,2013-01-29 12:52:00,
2013-01-29 07:57:00,52.0,49.7,29.73,North,0,0.0,0.0,92,0.00,,,0.00,WUHU216HW,2013-01-29 12:57:00,
2013-01-29 08:02:00,52.0,49.7,29.74,North,0,0.0,0.0,92,0.00,,,0.00,WUHU216HW,2013-01-29 13:02:00,
2013-01-29 08:07:00,52.0,49.7,29.73,North,0,0.0,0.0,92,0.00,,,0.00,WUHU216HW,2013-01-29 13:07:00,
2013-01-29 08:12:00,52.0,49.7,29.73,North,0,0.0,0.0,92,0.00,,,0.00,WUHU216HW,2013-01-29 13:12:00,
2013-01-29 08:17:00,52.2,49.9,29.74,North,0,0.0,0.0,92,0.00,,,0.00,WUHU216HW,2013-01-29 13:17:00,
2013-01-29 08:23:00,52.2,49.9,29.74,North,0,0.0,0.0,92,0.00,,,0.00,WUHU216HW,2013-01-29 13:23:00,
2013-01-29 08:28:00,52.2,49.9,29.74,North,0,0.0,0.0,92,0.00,,,0.00,WUHU216HW,2013-01-29 13:28:00,
2013-01-29 08:33:00,52.2,49.9,29.74,North,0,0.0,0.0,92,0.00,,,0.00,WUHU216HW,2013-01-29 13:33:00,
2013-01-29 08:38:00,52.2,49.9,29.74,North,0,0.0,0.0,92,0.00,,,0.00,WUHU216HW,2013-01-29 13:38:00,
2013-01-29 08:43:00,52.2,49.9,29.73,North,0,0.0,0.0,92,0.00,,,0.00,WUHU216HW,2013-01-29 13:43:00,
2013-01-29 08:48:00,52.2,49.9,29.73,North,0,0.0,0.0,92,0.00,,,0.00,WUHU216HW,2013-01-29 13:48:00,
2013-01-29 08:53:00,52.2,49.9,29.72,North,0,0.0,0.0,92,0.00,,,0.00,WUHU216HW,2013-01-29 13:53:00,
2013-01-29 08:58:00,52.2,49.9,29.72,North,0,0.0,0.0,92,0.00,,,0.00,WUHU216HW,2013-01-29 13:58:00,
2013-01-29 09:03:00,52.4,50.0,29.72,North,0,0.0,0.0,92,0.00,,,0.00,WUHU216HW,2013-01-29 14:03:00,
2013-01-29 09:08:00,52.4,50.0,29.72,North,0,0.0,0.0,92,0.00,,,0.00,WUHU216HW,2013-01-29 14:08:00,
2013-01-29 09:13:00,52.6,50.2,29.72,North,0,0.0,0.0,92,0.00,,,0.00,WUHU216HW,2013-01-29 14:13:00,
2013-01-29 09:19:00,52.6,50.2,29.72,North,0,0.0,0.0,92,0.00,,,0.00,WUHU216HW,2013-01-29 14:19:00,
2013-01-29 09:24:00,52.6,50.2,29.71,North,0,0.0,0.0,92,0.00,,,0.00,WUHU216HW,2013-01-29 14:24:00,
2013-01-29 09:29:00,52.7,50.4,29.71,North,0,0.0,0.0,92,0.00,,,0.00,WUHU216HW,2013-01-29 14:29:00,
2013-01-29 09:34:00,52.9,50.6,29.71,North,0,0.0,0.0,92,0.00,,,0.00,WUHU216HW,2013-01-29 14:34:00,
2013-01-29 09:39:00,52.9,50.6,29.71,North,0,0.0,0.0,92,0.00,,,0.00,WUHU216HW,2013-01-29 14:39:00,
2013-01-29 09:44:00,52.9,50.6,29.71,North,0,0.0,0.0,92,0.00,,,0.00,WUHU216HW,2013-01-29 14:44:00,
2013-01-29 09:49:00,52.9,50.6,29.71,North,0,0.0,0.0,92,0.00,,,0.00,WUHU216HW,2013-01-29 14:49:00,
2013-01-29 09:54:00,53.1,50.8,29.71,North,0,0.0,0.0,92,0.00,,,0.00,WUHU216HW,2013-01-29 14:54:00,
2013-01-29 09:59:00,53.3,50.9,29.72,North,0,0.0,0.0,92,0.00,,,0.00,WUHU216HW,2013-01-29 14:59:00,
2013-01-29 10:04:00,53.3,50.9,29.72,North,0,0.0,0.0,92,0.00,,,0.00,WUHU216HW,2013-01-29 15:04:00,
2013-01-29 10:09:00,53.5,51.1,29.71,North,0,0.0,0.0,92,0.00,,,0.00,WUHU216HW,2013-01-29 15:09:00,
2013-01-29 10:14:00,53.6,51.3,29.71,North,0,0.0,0.0,92,0.00,,,0.00,WUHU216HW,2013-01-29 15:14:00,
2013-01-29 10:19:00,53.6,51.3,29.72,North,0,0.0,0.0,92,0.00,,,0.00,WUHU216HW,2013-01-29 15:19:00,
2013-01-29 10:24:00,53.6,51.3,29.72,North,0,0.0,0.0,92,0.00,,,0.00,WUHU216HW,2013-01-29 15:24:00,
2013-01-29 10:30:00,53.8,51.5,29.72,North,0,0.0,0.0,92,0.00,,,0.00,WUHU216HW,2013-01-29 15:30:00,
2013-01-29 10:35:00,54.0,51.7,29.72,North,0,0.0,0.0,92,0.00,,,0.00,WUHU216HW,2013-01-29 15:35:00,
2013-01-29 10:40:00,54.0,51.7,29.72,North,0,0.0,0.0,92,0.00,,,0.00,WUHU216HW,2013-01-29 15:40:00,
2013-01-29 10:45:00,54.2,51.8,29.72,North,0,0.0,0.0,92,0.00,,,0.00,WUHU216HW,2013-01-29 15:45:00,
2013-01-29 10:50:00,54.4,52.0,29.72,North,0,0.0,0.0,92,0.00,,,0.00,WUHU216HW,2013-01-29 15:50:00,
2013-01-29 10:55:00,54.5,52.2,29.72,North,0,0.0,0.0,92,0.00,,,0.00,WUHU216HW,2013-01-29 15:55:00,
2013-01-29 11:00:00,54.7,52.4,29.72,North,0,0.0,0.0,92,0.00,,,0.00,WUHU216HW,2013-01-29 16:00:00,
2013-01-29 11:05:00,54.9,52.6,29.72,North,0,0.0,0.0,92,0.00,,,0.00,WUHU216HW,2013-01-29 16:05:00,
2013-01-29 11:10:00,55.1,52.5,29.71,North,0,0.0,0.0,91,0.00,,,0.00,WUHU216HW,2013-01-29 16:10:00,
2013-01-29 11:15:00,55.6,53.0,29.71,North,0,0.0,0.0,91,0.00,,,0.00,WUHU216HW,2013-01-29 16:15:00,
2013-01-29 11:20:00,55.8,53.2,29.71,North,0,0.0,0.0,91,0.00,,,0.00,WUHU216HW,2013-01-29 16:20:00,
2013-01-29 11:25:00,55.8,53.2,29.71,North,0,0.0,0.0,91,0.00,,,0.00,WUHU216HW,2013-01-29 16:25:00,
2013-01-29 11:30:00,56.2,53.6,29.71,North,0,0.0,0.0,91,0.00,,,0.00,WUHU216HW,2013-01-29 16:30:00,
2013-01-29 11:35:00,56.3,53.7,29.71,North,0,0.0,0.0,91,0.00,,,0.00,WUHU216HW,2013-01-29 16:35:00,
2013-01-29 11:40:00,56.5,53.9,29.71,North,0,0.0,0.0,91,0.00,,,0.00,WUHU216HW,2013-01-29 16:40:00,
2013-01-29 11:45:00,56.7,53.8,29.70,North,0,0.0,0.0,90,0.00,,,0.00,WUHU216HW,2013-01-29 16:45:00,
2013-01-29 11:50:00,56.9,54.0,29.70,North,0,0.0,0.0,90,0.00,,,0.00,WUHU216HW,2013-01-29 16:50:00,
2013-01-29 11:56:00,57.1,54.2,29.69,North,0,0.0,0.0,90,0.00,,,0.00,WUHU216HW,2013-01-29 16:56:00,
2013-01-29 12:01:00,57.2,54.4,29.69,North,0,0.0,0.0,90,0.00,,,0.00,WUHU216HW,2013-01-29 17:01:00,
2013-01-29 12:06:00,57.2,54.4,29.69,North,0,0.0,0.0,90,0.00,,,0.00,WUHU216HW,2013-01-29 17:06:00,
2013-01-29 12:11:00,57.6,54.7,29.69,North,0,0.0,0.0,90,0.00,,,0.00,WUHU216HW,2013-01-29 17:11:00,
2013-01-29 12:16:00,57.6,54.4,29.69,North,0,0.0,0.0,89,0.00,,,0.00,WUHU216HW,2013-01-29 17:16:00,
2013-01-29 12:21:00,57.8,54.5,29.69,North,0,0.0,0.0,89,0.00,,,0.00,WUHU216HW,2013-01-29 17:21:00,
2013-01-29 12:26:00,57.8,54.5,29.69,North,0,0.0,0.0,89,0.00,,,0.00,WUHU216HW,2013-01-29 17:26:00,
2013-01-29 12:31:00,57.8,54.5,29.69,North,0,0.0,0.0,89,0.00,,,0.00,WUHU216HW,2013-01-29 17:31:00,
2013-01-29 12:36:00,58.0,54.7,29.68,North,0,0.0,0.0,89,0.00,,,0.00,WUHU216HW,2013-01-29 17:36:00,
2013-01-29 12:42:00,58.0,54.7,29.68,North,0,0.0,0.0,89,0.00,,,0.00,WUHU216HW,2013-01-29 17:42:00,
2013-01-29 12:47:00,58.0,54.7,29.68,North,0,0.0,0.0,89,0.00,,,0.00,WUHU216HW,2013-01-29 17:47:00,
2013-01-29 12:52:00,58.0,54.7,29.68,North,0,0.0,0.0,89,0.00,,,0.00,WUHU216HW,2013-01-29 17:52:00,
2013-01-29 12:57:00,58.1,54.9,29.67,North,0,0.0,0.0,89,0.00,,,0.00,WUHU216HW,2013-01-29 17:57:00,
2013-01-29 13:02:00,58.3,55.4,29.67,North,0,0.0,0.0,90,0.00,,,0.00,WUHU216HW,2013-01-29 18:02:00,
2013-01-29 13:07:00,58.5,55.6,29.67,North,0,0.0,0.0,90,0.00,,,0.00,WUHU216HW,2013-01-29 18:07:00,
2013-01-29 13:12:00,58.3,55.4,29.66,North,0,0.0,0.0,90,0.00,,,0.00,WUHU216HW,2013-01-29 18:12:00,
2013-01-29 13:17:00,58.3,55.1,29.66,North,0,0.0,0.0,89,0.00,,,0.00,WUHU216HW,2013-01-29 18:17:00,
2013-01-29 13:22:00,58.1,54.6,29.65,North,0,0.0,0.0,88,0.00,,,0.00,WUHU216HW,2013-01-29 18:22:00,
2013-01-29 13:27:00,58.1,54.6,29.65,North,0,0.0,0.0,88,0.00,,,0.00,WUHU216HW,2013-01-29 18:27:00,
2013-01-29 13:32:00,58.1,54.6,29.64,North,0,0.0,0.0,88,0.00,,,0.00,WUHU216HW,2013-01-29 18:32:00,
2013-01-29 13:37:00,58.0,54.5,29.64,North,0,0.0,0.0,88,0.00,,,0.00,WUHU216HW,2013-01-29 18:37:00,
2013-01-29 13:42:00,58.0,54.5,29.64,North,0,0.0,0.0,88,0.00,,,0.00,WUHU216HW,2013-01-29 18:42:00,
2013-01-29 13:47:00,58.0,54.5,29.64,North,0,0.0,0.0,88,0.00,,,0.00,WUHU216HW,2013-01-29 18:47:00,
2013-01-29 13:52:00,58.0,54.5,29.63,North,0,0.0,0.0,88,0.00,,,0.00,WUHU216HW,2013-01-29 18:52:00,
2013-01-29 13:57:00,58.0,54.5,29.63,North,0,0.0,0.0,88,0.00,,,0.00,WUHU216HW,2013-01-29 18:57:00,
2013-01-29 14:02:00,58.0,54.5,29.63,North,0,0.0,0.0,88,0.00,,,0.00,WUHU216HW,2013-01-29 19:02:00,
2013-01-29 14:07:00,57.8,54.3,29.63,North,0,0.0,0.0,88,0.00,,,0.00,WUHU216HW,2013-01-29 19:07:00,
2013-01-29 14:12:00,57.6,54.1,29.63,North,0,0.0,0.0,88,0.00,,,0.00,WUHU216HW,2013-01-29 19:12:00,
2013-01-29 14:17:00,57.6,54.1,29.63,North,0,0.0,0.0,88,0.00,,,0.00,WUHU216HW,2013-01-29 19:17:00,
2013-01-29 14:23:00,57.6,54.1,29.62,North,0,0.0,0.0,88,0.00,,,0.00,WUHU216HW,2013-01-29 19:23:00,
2013-01-29 14:28:00,57.6,54.1,29.63,North,0,0.0,0.0,88,0.00,,,0.00,WUHU216HW,2013-01-29 19:28:00,
2013-01-29 14:33:00,57.4,53.9,29.62,North,0,0.0,0.0,88,0.00,,,0.00,WUHU216HW,2013-01-29 19:33:00,
2013-01-29 14:38:00,57.4,53.9,29.62,North,0,0.0,0.0,88,0.00,,,0.00,WUHU216HW,2013-01-29 19:38:00,
2013-01-29 14:43:00,57.4,53.9,29.61,North,0,0.0,0.0,88,0.00,,,0.00,WUHU216HW,2013-01-29 19:43:00,
2013-01-29 14:48:00,57.6,54.1,29.61,North,0,0.0,0.0,88,0.00,,,0.00,WUHU216HW,2013-01-29 19:48:00,
2013-01-29 14:53:00,57.4,53.9,29.60,North,0,0.0,0.0,88,0.00,,,0.00,WUHU216HW,2013-01-29 19:53:00,
2013-01-29 14:58:00,57.6,54.1,29.60,North,0,0.0,0.0,88,0.00,,,0.00,WUHU216HW,2013-01-29 19:58:00,
2013-01-29 15:01:00,57.6,54.1,29.60,North,0,0.0,0.0,88,0.00,,,0.00,WUHU216HW,2013-01-29 20:01:00,
2013-01-29 15:06:00,57.6,54.1,29.60,North,0,0.0,0.0,88,0.00,,,0.00,WUHU216HW,2013-01-29 20:06:00,
2013-01-29 15:11:00,57.8,54.3,29.60,North,0,0.0,0.0,88,0.00,,,0.00,WUHU216HW,2013-01-29 20:11:00,
2013-01-29 15:16:00,57.8,54.3,29.60,North,0,0.0,0.0,88,0.00,,,0.00,WUHU216HW,2013-01-29 20:16:00,
2013-01-29 15:21:00,58.0,54.5,29.60,North,0,0.0,0.0,88,0.00,,,0.00,WUHU216HW,2013-01-29 20:21:00,
2013-01-29 15:26:00,58.0,54.5,29.59,North,0,0.0,0.0,88,0.00,,,0.00,WUHU216HW,2013-01-29 20:26:00,
2013-01-29 15:31:00,58.3,55.1,29.59,North,0,0.0,0.0,89,0.00,,,0.00,WUHU216HW,2013-01-29 20:31:00,
2013-01-29 15:36:00,58.5,55.0,29.59,North,0,0.0,0.0,88,0.00,,,0.00,WUHU216HW,2013-01-29 20:36:00,
2013-01-29 15:41:00,58.7,55.2,29.59,North,0,0.0,0.0,88,0.00,,,0.00,WUHU216HW,2013-01-29 20:41:00,
2013-01-29 15:46:00,58.9,55.0,29.59,North,0,0.0,0.0,87,0.00,,,0.00,WUHU216HW,2013-01-29 20:46:00,
2013-01-29 15:51:00,58.9,55.0,29.59,North,0,0.0,0.0,87,0.00,,,0.00,WUHU216HW,2013-01-29 20:51:00,
2013-01-29 15:56:00,58.9,55.0,29.59,North,0,0.0,0.0,87,0.00,,,0.00,WUHU216HW,2013-01-29 20:56:00,
2013-01-29 16:01:00,58.9,55.0,29.59,North,0,0.0,0.0,87,0.00,,,0.00,WUHU216HW,2013-01-29 21:01:00,
2013-01-29 16:06:00,58.9,55.0,29.59,North,0,0.0,0.0,87,0.00,,,0.00,WUHU216HW,2013-01-29 21:06:00,
2013-01-29 16:11:00,58.9,55.0,29.59,North,0,0.0,0.0,87,0.00,,,0.00,WUHU216HW,2013-01-29 21:11:00,
2013-01-29 16:17:00,58.7,54.8,29.58,North,0,0.0,0.0,87,0.07,,,0.07,WUHU216HW,2013-01-29 21:17:00,
2013-01-29 16:22:00,58.7,54.8,29.58,North,0,0.0,0.0,87,0.07,,,0.07,WUHU216HW,2013-01-29 21:22:00,
2013-01-29 16:27:00,58.7,54.8,29.58,North,0,0.0,0.0,87,0.07,,,0.07,WUHU216HW,2013-01-29 21:27:00,
2013-01-29 16:32:00,58.7,54.8,29.58,North,0,0.0,0.0,87,0.07,,,0.07,WUHU216HW,2013-01-29 21:32:00,
2013-01-29 16:37:00,58.5,54.6,29.57,North,0,0.0,0.0,87,0.07,,,0.07,WUHU216HW,2013-01-29 21:37:00,
2013-01-29 16:42:00,58.5,54.6,29.57,North,0,0.0,0.0,87,0.07,,,0.07,WUHU216HW,2013-01-29 21:42:00,
2013-01-29 16:47:00,58.3,54.5,29.57,North,0,0.0,0.0,87,0.07,,,0.07,WUHU216HW,2013-01-29 21:47:00,
2013-01-29 16:52:00,58.5,54.6,29.57,North,0,0.0,0.0,87,0.07,,,0.07,WUHU216HW,2013-01-29 21:52:00,
2013-01-29 16:57:00,58.5,54.6,29.57,North,0,0.0,0.0,87,0.07,,,0.07,WUHU216HW,2013-01-29 21:57:00,
2013-01-29 17:03:00,58.3,54.5,29.57,North,0,0.0,0.0,87,0.07,,,0.07,WUHU216HW,2013-01-29 22:03:00,
2013-01-29 17:08:00,58.5,54.6,29.57,North,0,0.0,0.0,87,0.07,,,0.07,WUHU216HW,2013-01-29 22:08:00,
2013-01-29 17:13:00,58.7,54.8,29.57,North,0,0.0,0.0,87,0.00,,,0.07,WUHU216HW,2013-01-29 22:13:00,
2013-01-29 17:18:00,58.5,54.6,29.56,North,0,0.0,0.0,87,0.00,,,0.07,WUHU216HW,2013-01-29 22:18:00,
2013-01-29 17:23:00,58.5,54.6,29.56,North,0,0.0,0.0,87,0.00,,,0.07,WUHU216HW,2013-01-29 22:23:00,
2013-01-29 17:28:00,58.5,54.6,29.56,North,0,0.0,0.0,87,0.00,,,0.07,WUHU216HW,2013-01-29 22:28:00,
2013-01-29 17:33:00,58.5,54.6,29.56,North,0,0.0,0.0,87,0.00,,,0.07,WUHU216HW,2013-01-29 22:33:00,
2013-01-29 17:38:00,58.5,54.6,29.55,North,0,0.0,0.0,87,0.00,,,0.07,WUHU216HW,2013-01-29 22:38:00,
2013-01-29 17:44:00,58.3,54.5,29.55,North,0,0.0,0.0,87,0.00,,,0.07,WUHU216HW,2013-01-29 22:44:00,
2013-01-29 17:49:00,58.3,54.5,29.55,North,0,0.0,0.0,87,0.00,,,0.07,WUHU216HW,2013-01-29 22:49:00,
2013-01-29 17:54:00,58.3,54.5,29.55,North,0,0.0,0.0,87,0.00,,,0.07,WUHU216HW,2013-01-29 22:54:00,
2013-01-29 17:59:00,58.3,54.5,29.55,North,0,0.0,0.0,87,0.00,,,0.07,WUHU216HW,2013-01-29 22:59:00,
2013-01-29 18:04:00,58.3,54.5,29.55,North,0,0.0,0.0,87,0.00,,,0.07,WUHU216HW,2013-01-29 23:04:00,
2013-01-29 18:09:00,58.3,54.5,29.55,North,0,0.0,0.0,87,0.00,,,0.07,WUHU216HW,2013-01-29 23:09:00,
2013-01-29 18:14:00,58.3,54.5,29.54,North,0,0.0,0.0,87,0.00,,,0.07,WUHU216HW,2013-01-29 23:14:00,
2013-01-29 18:19:00,58.3,54.5,29.54,North,0,0.0,0.0,87,0.00,,,0.07,WUHU216HW,2013-01-29 23:19:00,
2013-01-29 18:24:00,58.3,54.5,29.55,North,0,0.0,0.0,87,0.00,,,0.07,WUHU216HW,2013-01-29 23:24:00,
2013-01-29 18:29:00,58.3,54.5,29.54,North,0,0.0,0.0,87,0.00,,,0.07,WUHU216HW,2013-01-29 23:29:00,
2013-01-29 18:34:00,58.3,54.5,29.54,North,0,0.0,0.0,87,0.00,,,0.07,WUHU216HW,2013-01-29 23:34:00,
2013-01-29 18:39:00,58.5,54.6,29.53,North,0,0.0,0.0,87,0.00,,,0.07,WUHU216HW,2013-01-29 23:39:00,
2013-01-29 18:44:00,58.5,54.6,29.54,North,0,0.0,0.0,87,0.00,,,0.07,WUHU216HW,2013-01-29 23:44:00,
2013-01-29 18:50:00,58.5,54.6,29.53,North,0,0.0,0.0,87,0.00,,,0.07,WUHU216HW,2013-01-29 23:50:00,
2013-01-29 18:55:00,58.7,54.8,29.53,North,0,0.0,0.0,87,0.00,,,0.07,WUHU216HW,2013-01-29 23:55:00,
2013-01-29 19:00:00,58.7,54.8,29.53,North,0,0.0,0.0,87,0.00,,,0.07,WUHU216HW,2013-01-30 00:00:00,
2013-01-29 19:05:00,58.5,54.6,29.53,North,0,0.0,0.0,87,0.00,,,0.07,WUHU216HW,2013-01-30 00:05:00,
2013-01-29 19:10:00,58.5,54.6,29.53,North,0,0.0,0.0,87,0.00,,,0.07,WUHU216HW,2013-01-30 00:10:00,
2013-01-29 19:15:00,58.5,54.6,29.53,North,0,0.0,0.0,87,0.00,,,0.07,WUHU216HW,2013-01-30 00:15:00,
2013-01-29 19:20:00,58.5,54.6,29.52,North,0,0.0,0.0,87,0.00,,,0.07,WUHU216HW,2013-01-30 00:20:00,
2013-01-29 19:25:00,58.3,54.5,29.52,North,0,0.0,0.0,87,0.00,,,0.07,WUHU216HW,2013-01-30 00:25:00,
2013-01-29 19:30:00,58.3,54.5,29.52,North,0,0.0,0.0,87,0.00,,,0.07,WUHU216HW,2013-01-30 00:30:00,
2013-01-29 19:35:00,58.3,54.5,29.52,North,0,0.0,0.0,87,0.00,,,0.07,WUHU216HW,2013-01-30 00:35:00,
2013-01-29 19:40:00,58.3,54.5,29.51,North,0,0.0,0.0,87,0.00,,,0.07,WUHU216HW,2013-01-30 00:40:00,
2013-01-29 19:45:00,58.3,54.5,29.50,North,0,0.0,0.0,87,0.00,,,0.07,WUHU216HW,2013-01-30 00:45:00,
2013-01-29 19:50:00,58.3,54.5,29.50,North,0,0.0,0.0,87,0.00,,,0.07,WUHU216HW,2013-01-30 00:50:00,
2013-01-29 19:55:00,58.3,54.5,29.49,North,0,0.0,0.0,87,0.00,,,0.07,WUHU216HW,2013-01-30 00:55:00,
2013-01-29 20:00:00,58.3,54.5,29.50,North,0,0.0,0.0,87,0.00,,,0.07,WUHU216HW,2013-01-30 01:00:00,
2013-01-29 20:05:00,58.1,54.6,29.49,North,0,0.0,0.0,88,0.00,,,0.07,WUHU216HW,2013-01-30 01:05:00,
2013-01-29 20:10:00,58.3,54.5,29.49,North,0,0.0,0.0,87,0.00,,,0.07,WUHU216HW,2013-01-30 01:10:00,
2013-01-29 20:15:00,58.3,54.8,29.49,North,0,0.0,0.0,88,0.00,,,0.07,WUHU216HW,2013-01-30 01:15:00,
2013-01-29 20:21:00,58.3,54.8,29.48,North,0,0.0,0.0,88,0.00,,,0.07,WUHU216HW,2013-01-30 01:21:00,
2013-01-29 20:26:00,58.3,54.5,29.48,North,0,0.0,0.0,87,0.00,,,0.07,WUHU216HW,2013-01-30 01:26:00,
2013-01-29 20:31:00,58.3,54.5,29.47,North,0,0.0,0.0,87,0.00,,,0.07,WUHU216HW,2013-01-30 01:31:00,
2013-01-29 20:36:00,58.3,54.8,29.47,North,0,0.0,0.0,88,0.00,,,0.07,WUHU216HW,2013-01-30 01:36:00,
2013-01-29 20:41:00,58.3,54.8,29.47,North,0,0.0,0.0,88,0.00,,,0.07,WUHU216HW,2013-01-30 01:41:00,
2013-01-29 20:46:00,58.3,54.8,29.47,North,0,0.0,0.0,88,0.00,,,0.07,WUHU216HW,2013-01-30 01:46:00,
2013-01-29 20:51:00,58.3,54.8,29.47,North,0,0.0,0.0,88,0.00,,,0.07,WUHU216HW,2013-01-30 01:51:00,
2013-01-29 20:56:00,58.3,54.8,29.46,North,0,0.0,0.0,88,0.00,,,0.07,WUHU216HW,2013-01-30 01:56:00,
2013-01-29 21:01:00,58.3,54.8,29.46,North,0,0.0,0.0,88,0.00,,,0.07,WUHU216HW,2013-01-30 02:01:00,
2013-01-29 21:06:00,58.3,54.8,29.46,North,0,0.0,0.0,88,0.00,,,0.07,WUHU216HW,2013-01-30 02:06:00,
2013-01-29 21:11:00,58.5,55.0,29.46,North,0,0.0,0.0,88,0.00,,,0.07,WUHU216HW,2013-01-30 02:11:00,
2013-01-29 21:17:00,58.7,55.2,29.46,North,0,0.0,0.0,88,0.00,,,0.07,WUHU216HW,2013-01-30 02:17:00,
2013-01-29 21:22:00,58.7,55.2,29.45,North,0,0.0,0.0,88,0.00,,,0.07,WUHU216HW,2013-01-30 02:22:00,
2013-01-29 21:27:00,58.7,55.2,29.45,North,0,0.0,0.0,88,0.00,,,0.07,WUHU216HW,2013-01-30 02:27:00,
2013-01-29 21:32:00,58.9,55.4,29.44,North,0,0.0,0.0,88,0.00,,,0.07,WUHU216HW,2013-01-30 02:32:00,
2013-01-29 21:37:00,58.9,55.4,29.43,North,0,0.0,0.0,88,0.00,,,0.07,WUHU216HW,2013-01-30 02:37:00,
2013-01-29 21:42:00,59.0,55.5,29.42,North,0,0.0,0.0,88,0.00,,,0.07,WUHU216HW,2013-01-30 02:42:00,
2013-01-29 21:47:00,59.0,55.5,29.42,North,0,0.0,0.0,88,0.00,,,0.07,WUHU216HW,2013-01-30 02:47:00,
2013-01-29 21:52:00,59.2,55.7,29.41,North,0,0.0,0.0,88,0.00,,,0.07,WUHU216HW,2013-01-30 02:52:00,
2013-01-29 21:58:00,59.2,55.7,29.41,North,0,0.0,0.0,88,0.00,,,0.07,WUHU216HW,2013-01-30 02:58:00,
2013-01-29 22:03:00,59.2,55.7,29.40,North,0,0.0,0.0,88,0.00,,,0.07,WUHU216HW,2013-01-30 03:03:00,
2013-01-29 22:08:00,59.2,55.7,29.40,North,0,0.0,0.0,88,0.00,,,0.07,WUHU216HW,2013-01-30 03:08:00,
2013-01-29 22:13:00,59.4,55.9,29.39,North,0,0.0,0.0,88,0.00,,,0.07,WUHU216HW,2013-01-30 03:13:00,
2013-01-29 22:18:00,59.4,55.9,29.39,North,0,0.0,0.0,88,0.00,,,0.07,WUHU216HW,2013-01-30 03:18:00,
2013-01-29 22:23:00,59.6,56.1,29.38,North,0,0.0,0.0,88,0.00,,,0.07,WUHU216HW,2013-01-30 03:23:00,
2013-01-29 22:28:00,59.8,56.3,29.37,North,0,0.0,0.0,88,0.00,,,0.07,WUHU216HW,2013-01-30 03:28:00,
2013-01-29 22:33:00,60.1,56.3,29.37,North,0,0.0,0.0,87,0.00,,,0.07,WUHU216HW,2013-01-30 03:33:00,
2013-01-29 22:39:00,60.1,56.3,29.37,North,0,0.0,0.0,87,0.00,,,0.07,WUHU216HW,2013-01-30 03:39:00,
2013-01-29 22:44:00,60.3,56.4,29.36,North,0,0.0,0.0,87,0.00,,,0.07,WUHU216HW,2013-01-30 03:44:00,
2013-01-29 22:49:00,60.5,56.6,29.34,North,0,0.0,0.0,87,0.00,,,0.07,WUHU216HW,2013-01-30 03:49:00,
2013-01-29 22:54:00,60.7,56.8,29.34,North,0,0.0,0.0,87,0.00,,,0.07,WUHU216HW,2013-01-30 03:54:00,
2013-01-29 22:59:00,60.8,57.0,29.33,North,0,0.0,0.0,87,0.00,,,0.07,WUHU216HW,2013-01-30 03:59:00,
2013-01-29 23:04:00,60.8,56.7,29.33,North,0,0.0,0.0,86,0.00,,,0.07,WUHU216HW,2013-01-30 04:04:00,
2013-01-29 23:09:00,60.8,56.7,29.33,North,0,0.0,0.0,86,0.00,,,0.07,WUHU216HW,2013-01-30 04:09:00,
2013-01-29 23:14:00,61.0,56.9,29.33,North,0,0.0,0.0,86,0.00,,,0.07,WUHU216HW,2013-01-30 04:14:00,
2013-01-29 23:19:00,61.0,56.9,29.32,North,0,0.0,0.0,86,0.00,,,0.07,WUHU216HW,2013-01-30 04:19:00,
2013-01-29 23:25:00,61.2,57.0,29.32,North,0,0.0,0.0,86,0.00,,,0.07,WUHU216HW,2013-01-30 04:25:00,
2013-01-29 23:30:00,61.4,57.2,29.31,North,0,0.0,0.0,86,0.00,,,0.07,WUHU216HW,2013-01-30 04:30:00,
2013-01-29 23:35:00,61.4,57.2,29.31,North,0,0.0,0.0,86,0.00,,,0.07,WUHU216HW,2013-01-30 04:35:00,
2013-01-29 23:40:00,61.4,57.2,29.31,North,0,0.0,0.0,86,0.00,,,0.07,WUHU216HW,2013-01-30 04:40:00,
2013-01-29 23:45:00,61.6,57.1,29.30,North,0,0.0,0.0,85,0.00,,,0.07,WUHU216HW,2013-01-30 04:45:00,
2013-01-29 23:50:00,61.6,57.1,29.30,North,0,0.0,0.0,85,0.00,,,0.07,WUHU216HW,2013-01-30 04:50:00,
2013-01-29 23:55:00,61.7,57.2,29.29,North,0,0.0,0.0,85,0.00,,,0.07,WUHU216HW,2013-01-30 04:55:00,